Regional Weather Roundup
Issued by NWS State College, PA

Home | Current Version | Previous Version | Text Only | Print | Product List | Glossary Off
Versions: 1 2 3 4 5 6 7 8 9 10 11 12 13 14 15 16 17 18 19 20 21 22 23 24 25 26 27 28 29 30 31 32 33 34 35 36 37 38 39 40 41 42 43 44 45 46 47 48 49 50

592
ASUS41 KCTP 300503
RWRCTP

REGIONAL WEATHER ROUNDUP
NATIONAL WEATHER SERVICE STATE COLLEGE PA
100 AM EDT MON MAY 30 2016

Note: "fair" indicates few or no clouds below 12,000 feet with no
significant weather and/or obstructions to visibility.

* = STATION THAT DOES NOT REPORT PRECIPITATION /E.G. RAIN...SNOW...ETC/
    THUNDER OR FOG.

PAZ002>004-007>009-013>016-020>023-029>032-300600-
WESTERN PENNSYLVANIA

CITY           SKY/WX    TMP DP  RH WIND       PRES   REMARKS
ERIE           CLOUDY    71  60  68 S8        29.95S
MEADVILLE      MOCLDY    64  60  87 S6        30.01F
FRANKLIN*      MOCLDY    61  57  88 S10       30.05F
NEW CASTLE     FAIR      63  61  93 S5        30.04F
BEAVER COUNTY  NOT AVBL
BUTLER*        CLEAR    N/A N/A N/A CALM      30.08S
PITTSBURGH INT PTCLDY    66  60  81 N5        30.05S
PITTSBURGH     PTCLDY    63  60  90 S7        30.03F
INDIANA*       PTCLDY    61  61 100 CALM      30.09F
LATROBE        PTCLDY    63  63 100 CALM      30.06F
WASHINGTON CO* CLEAR     61  57  88 S3        30.04F
$$

PAZ004>006-010>012-017>019-024>028-033>037-041-042-045-046-049>053-300600-
CENTRAL PENNSYLVANIA

CITY           SKY/WX    TMP DP  RH WIND       PRES   REMARKS
BRADFORD       MOCLDY    63  54  72 CALM      30.07F
DUBOIS         CLOUDY    60  57  89 CALM      30.06F
CLEARFIELD     FOG       61  59  93 N3        30.07F VSB<1/4
JOHNSTOWN      PTCLDY    62  56  80 S6        30.09F
ALTOONA        CLOUDY    63  59  87 SE5       30.08F
STATE COLLEGE  CLOUDY    64  59  85 CALM      30.06F
WILLIAMSPORT   CLOUDY    73  55  53 SE9       30.02F
SELINSGROVE    LGT RAIN  68  66  93 CALM      30.06S
FT INDIANTOWN  LGT RAIN  68  68 100 SW8       30.05F
CAPITAL CITY   HVY RAIN  64  61  90 NW6       30.06S
HARRISBURG     LGT RAIN  67  62  84 NW13      30.05S
YORK           LGT RAIN  65  64  97 CALM      30.06F
$$

PAZ038>040-043-044-047-048-054-055-060>062-067>071-300600-
EASTERN PENNSYLVANIA

CITY           SKY/WX    TMP DP  RH WIND       PRES   REMARKS
SCRANTON       LGT RAIN  69  64  84 SW6       30.05F
MOUNT POCONO   LGT RAIN  62 N/A N/A CALM      30.09F
ALLENTOWN      LGT RAIN  72  68  88 S8        30.04F
QUAKERTOWN*    CLOUDY    68  68 100 SW3       30.07F
READING        RAIN      72  69  90 SW7       30.03F
LANCASTER      LGT RAIN  68  67  96 W5        30.04F FOG
COATESVILLE    LGT RAIN  68  68 100 CALM      30.06F
POTTSTOWN      RAIN      68  66  93 CALM      30.06F FOG
BLUE BELL      CLOUDY    68  66  94 CALM      30.04F
DOYLESTOWN     LGT RAIN  67  67 100 CALM      30.05F
WILLOW GROVE   NOT AVBL
NORTH PHILA    LGT RAIN  69  66  90 CALM      30.05F
PHILADELPHIA   LGT RAIN  71  68  90 CALM      30.05F FOG
$$




USA.gov is the U.S. government's official web portal to all federal, state and local government web resources and services.